Wind_Speed
35 35 34 35 38 40 40 38 36 33 32 31 31 30 26 19 10 6 6 7 10 18 22 23 25 26 25 24 23 23 24 24 24 25 27 28 28 28 28 28 28 28 27 27 29 30 32 32 31 30 31 31 31 30 30 29 29 30 30 32 33 33 32 31 30 28 27 26 25 24 22 20 19 18
34 34 34 34 37 38 36 36 37 35 33 32 33 34 33 27 18 11 8 8 11 15 19 22 24 24 23 21 21 22 22 21 22 23 26 26 27 27 27 27 27 27 27 28 29 30 31 33 34 32 31 31 32 31 30 29 29 29 29 30 31 33 32 31 30 29 27 27 26 24 22 21 19 19
35 34 33 33 35 37 36 35 36 37 35 35 34 35 34 30 27 23 13 6 10 14 16 19 21 20 19 18 18 19 19 18 19 20 21 22 23 24 26 26 27 27 27 27 28 28 30 32 33 32 31 31 32 32 31 31 31 30 29 29 30 31 31 30 30 29 28 27 27 25 23 21 20 19
36 35 34 34 35 35 35 35 37 40 40 39 37 36 35 31 28 26 15 6 11 18 19 18 18 17 17 18 17 18 18 17 16 17 18 19 20 22 24 25 26 27 27 28 28 29 30 30 31 31 31 31 32 32 31 31 31 30 29 29 28 29 29 29 30 29 28 27 27 26 24 21 20 19
37 36 35 35 35 35 35 36 37 41 43 42 39 36 35 32 27 23 16 10 12 20 23 21 20 18 17 18 20 20 20 20 19 19 19 19 20 22 23 24 25 26 26 26 27 27 27 28 29 31 31 33 34 32 30 30 30 30 29 29 28 28 28 29 29 29 28 27 28 27 24 21 20 19
34 35 35 36 37 36 36 37 38 41 43 41 39 38 34 31 28 26 24 20 14 17 24 24 21 21 20 21 23 22 23 23 23 21 20 19 20 21 22 23 23 23 23 24 24 24 25 26 28 29 31 32 33 32 30 30 30 28 26 27 27 27 27 28 28 28 27 27 28 28 25 22 21 20
31 32 33 35 38 37 36 38 40 42 43 42 39 38 35 31 30 29 30 27 19 16 22 24 21 21 21 22 23 23 23 23 23 22 20 18 18 19 19 20 21 21 21 22 21 22 23 25 27 27 28 29 30 30 29 29 29 27 25 26 26 26 26 27 27 27 27 27 28 27 24 21 21 19
30 31 33 36 38 37 37 38 40 41 42 42 40 38 35 32 30 28 26 25 22 17 19 25 27 23 21 22 22 21 21 21 22 22 21 19 19 19 19 20 20 20 20 20 20 21 22 24 25 25 25 26 27 27 26 26 26 26 25 25 27 27 26 25 25 26 26 26 27 26 23 22 21 20
29 32 36 38 38 37 36 38 39 40 42 42 40 38 36 32 29 26 23 23 25 23 22 28 31 26 22 22 22 21 21 21 22 22 22 22 21 20 21 21 20 20 20 20 19 19 19 19 20 21 22 22 24 25 24 24 24 24 24 25 27 27 25 24 24 24 26 26 26 26 25 23 22 20
32 33 36 38 39 39 40 40 39 39 41 42 40 38 36 32 27 24 24 23 25 27 29 30 30 27 24 23 23 24 23 22 22 22 23 22 21 20 22 21 21 20 20 20 19 18 16 16 17 19 20 20 21 22 22 21 21 22 23 25 26 25 23 23 23 25 26 26 26 26 25 22 21 20
35 35 37 38 39 41 43 44 42 41 42 41 40 40 38 35 30 26 27 27 25 27 29 27 26 28 26 24 25 27 24 21 21 21 20 21 21 20 20 21 20 20 20 20 19 18 17 16 15 16 17 19 19 19 19 19 19 21 22 23 24 23 22 23 24 25 27 26 26 26 24 21 21 20
36 37 38 40 41 42 43 45 45 45 43 40 39 39 38 35 32 30 29 27 25 25 24 23 24 26 24 24 25 25 21 19 21 21 19 20 21 21 20 20 19 19 20 20 20 20 18 16 13 12 13 15 17 17 17 18 18 19 20 21 21 22 22 23 23 25 26 25 25 26 23 21 21 19
36 37 38 40 42 42 43 45 47 47 45 41 39 38 36 34 33 31 28 25 24 23 21 21 23 21 21 23 22 20 20 20 21 21 18 18 20 21 20 20 19 18 19 19 19 19 18 15 11 9 9 10 11 13 14 16 16 16 17 18 19 19 20 21 22 24 24 23 24 24 23 21 20 18
34 35 37 39 42 44 43 43 45 46 46 44 43 41 39 37 34 31 28 26 25 23 20 21 22 17 18 23 23 23 23 22 22 21 18 18 18 16 15 17 18 17 18 18 19 19 18 15 12 9 7 6 7 9 12 14 14 14 15 16 16 17 18 20 21 22 21 23 24 23 20 18 16 16
32 33 35 37 40 41 40 39 40 42 44 44 44 43 41 40 38 35 31 28 27 25 22 22 22 18 19 24 26 25 24 22 22 22 20 19 17 13 11 10 12 15 17 18 19 19 18 16 14 12 9 7 7 8 10 12 11 11 12 13 14 15 16 18 20 20 22 23 23 20 17 15 14 15
30 31 33 34 35 37 36 35 35 37 38 39 40 39 38 38 37 36 35 32 30 29 25 22 23 23 23 25 26 25 23 23 23 22 21 19 17 15 14 13 12 12 14 17 19 18 17 15 15 14 11 8 7 7 9 10 10 10 11 13 14 15 16 18 19 20 22 22 20 18 17 16 15 16
26 27 28 28 29 32 33 32 32 32 32 32 33 33 32 33 33 33 35 34 33 33 29 26 27 29 28 26 25 25 24 23 21 20 20 19 17 17 18 18 15 10 9 14 17 16 16 16 16 15 12 8 7 7 8 9 9 10 12 14 15 16 17 17 18 19 20 20 19 19 18 17 16 17
25 26 27 27 27 29 31 31 31 31 30 29 29 30 30 32 32 33 34 33 31 32 32 32 33 33 30 25 23 23 23 22 20 19 20 19 18 19 18 16 13 9 8 11 12 11 13 17 18 16 12 9 8 7 7 7 8 9 10 12 13 14 16 17 18 18 19 20 20 20 19 18 17 17
21 24 26 27 27 27 28 29 30 30 28 27 28 28 30 31 31 32 33 32 31 33 36 37 35 29 24 20 18 19 20 20 20 18 16 15 16 17 15 10 8 7 8 10 10 8 9 14 18 16 13 11 9 8 7 7 7 9 10 11 11 12 14 16 18 20 20 21 22 22 21 20 18 18
17 21 22 23 23 24 25 26 27 27 26 25 26 27 29 30 30 32 32 31 31 34 36 33 27 22 18 15 13 13 14 15 16 14 11 10 11 12 10 7 7 8 8 10 12 9 7 11 17 16 14 12 10 8 8 6 6 7 8 9 10 11 12 14 17 20 21 21 22 23 22 21 19 18
15 17 18 20 20 20 21 22 22 21 21 22 23 24 26 26 27 28 29 29 30 31 29 24 20 18 16 15 13 12 12 12 12 12 10 11 12 11 7 5 8 10 10 11 14 11 6 10 16 14 11 11 10 8 8 7 7 7 7 8 9 10 11 12 13 17 20 20 20 21 22 21 19 17
15 17 17 18 17 16 15 17 18 18 19 20 20 20 20 21 20 21 24 26 27 25 22 19 17 16 16 16 15 13 12 10 10 11 11 10 10 10 10 7 6 7 10 12 13 11 7 10 14 12 8 9 9 9 9 8 8 8 8 8 9 10 10 10 11 15 18 18 18 20 21 21 19 18
19 21 19 18 18 17 15 15 16 15 15 16 17 18 19 18 16 17 19 22 23 22 19 18 17 16 15 14 13 13 12 10 10 11 11 10 9 10 12 10 6 3 7 13 15 12 9 12 15 12 7 5 6 9 11 10 9 9 9 9 10 10 10 9 10 14 15 15 16 18 19 19 18 17
27 27 25 23 20 18 16 14 13 11 10 11 13 15 16 15 13 11 12 13 16 18 17 16 15 14 12 12 11 10 10 9 9 9 10 11 11 11 12 12 9 6 4 9 15 15 11 12 16 16 10 4 4 8 11 11 9 8 9 10 9 9 9 9 9 12 14 14 15 16 16 16 16 17
29 28 26 24 20 17 16 15 14 12 9 9 9 10 11 12 10 9 8 8 9 12 13 12 11 11 10 9 9 9 9 9 10 10 10 11 12 14 15 15 12 9 3 5 13 16 12 10 13 17 13 6 4 7 8 9 10 9 8 8 8 8 9 9 9 12 15 17 17 16 15 15 15 16
27 26 25 23 21 20 19 17 16 15 13 12 12 12 11 10 8 9 10 9 8 9 9 8 8 8 7 6 5 5 5 6 7 8 10 11 12 14 16 16 14 10 6 7 13 15 12 9 11 14 14 9 5 6 7 7 9 10 10 9 8 8 9 9 10 12 16 19 20 18 17 16 15 15
22 22 21 21 21 21 20 19 18 17 15 14 13 12 10 7 4 5 7 8 9 9 9 8 8 7 7 7 6 5 4 3 2 3 4 7 9 11 12 14 15 11 6 7 11 12 10 10 11 13 14 12 9 7 6 7 8 10 12 12 11 10 9 10 11 12 15 19 21 20 18 17 16 15
17 17 17 17 17 18 18 17 17 16 15 14 13 11 9 7 4 3 2 4 6 6 7 9 10 8 7 7 5 4 3 2 1 2 2 3 5 6 7 11 13 11 6 5 7 8 7 9 12 12 10 11 10 8 7 8 10 10 11 11 12 13 11 11 11 11 13 17 20 21 20 19 18 17
11 13 14 14 14 15 16 15 14 13 12 11 11 10 9 9 7 5 4 2 4 4 5 8 9 7 7 6 5 4 3 3 3 1 1 2 2 4 5 7 7 6 6 5 5 6 5 6 9 10 9 11 13 12 9 9 11 12 12 12 11 12 12 13 12 11 11 14 17 20 21 20 19 18
7 7 9 9 9 10 12 12 12 12 10 9 9 8 8 7 6 4 4 4 3 5 6 6 7 7 5 4 4 4 4 4 5 5 4 4 4 4 4 6 8 8 8 6 4 2 2 3 6 8 9 11 13 12 11 10 9 10 12 13 11 8 10 13 14 13 12 12 13 15 17 18 18 19
6 5 5 6 6 7 8 9 10 9 8 8 7 7 6 5 3 3 2 3 3 4 4 4 5 5 5 4 4 4 5 5 6 6 6 6 7 7 7 7 7 9 9 7 6 3 2 1 3 5 7 10 12 12 12 12 11 10 11 14 13 10 10 11 12 13 13 12 12 12 14 16 17 19
6 5 4 5 5 6 7 8 8 8 7 6 6 6 6 6 4 2 1 1 2 3 3 2 3 4 4 5 4 4 4 4 4 4 4 5 6 6 7 7 8 10 10 9 7 5 2 1 3 5 6 8 11 12 12 12 14 13 13 15 17 15 13 12 12 13 13 13 14 14 15 15 16 17
6 6 6 6 7 7 8 8 8 7 5 5 5 5 6 6 5 2 1 1 2 2 2 2 3 4 5 4 3 2 3 2 3 4 4 4 5 4 5 8 9 9 10 10 9 6 3 0 3 5 6 7 8 10 10 10 11 11 12 14 16 17 16 16 15 14 14 15 16 16 16 16 16 16
7 7 8 8 8 8 9 10 10 9 8 7 7 7 6 5 4 4 3 3 1 0 2 4 6 6 4 3 1 1 1 1 2 3 4 5 6 5 6 8 9 9 10 11 10 9 7 3 0 2 4 5 5 7 8 8 8 8 7 9 12 14 15 15 15 16 16 15 15 16 17 17 17 17
7 8 9 9 10 10 11 12 13 13 13 12 11 10 9 7 7 7 7 6 4 3 3 5 6 5 4 3 2 1 1 1 1 1 2 3 4 5 5 7 7 7 9 10 10 10 9 6 4 4 2 1 2 2 2 3 4 4 4 5 7 10 11 11 12 13 14 14 15 16 16 17 18 19
8 9 10 11 12 12 13 14 16 16 16 16 14 12 11 10 9 8 8 8 6 6 6 6 7 6 6 5 4 3 2 2 1 1 1 2 2 3 3 4 5 6 7 8 9 9 9 7 6 7 6 4 2 2 3 3 3 2 2 2 3 5 6 7 8 10 11 13 15 16 16 17 19 19
9 9 11 12 13 13 14 15 16 16 15 15 16 15 13 11 10 9 9 9 10 9 9 9 9 8 7 6 5 4 3 2 1 1 1 1 2 2 2 3 4 5 5 6 7 8 8 7 5 6 6 5 3 2 2 1 3 3 3 4 3 3 4 4 6 8 10 12 14 15 16 18 19 17
8 10 11 13 15 15 16 16 16 13 10 8 10 12 11 9 8 8 8 11 12 12 12 12 11 10 8 7 6 5 4 3 1 2 2 2 2 0 0 1 2 4 3 4 5 6 7 5 4 6 7 5 3 2 3 3 2 2 2 3 4 5 4 4 5 5 7 10 12 13 15 16 15 15
10 11 13 15 17 17 17 16 14 10 7 8 6 4 4 5 3 3 4 8 11 13 14 15 14 12 10 8 7 6 5 4 3 2 2 4 4 4 4 3 4 6 3 2 3 4 4 2 3 7 9 6 3 2 3 4 4 3 1 1 1 2 2 2 4 4 4 5 7 9 10 11 12 13
11 13 14 16 19 19 17 15 12 9 6 6 7 6 3 1 3 3 4 6 9 12 13 14 15 13 10 9 9 7 6 5 5 4 3 4 4 4 5 5 7 8 5 3 2 2 4 4 3 4 6 6 5 4 4 5 6 4 2 2 4 4 5 5 4 4 4 4 4 6 7 9 10 10
15 15 14 15 18 19 18 16 14 11 8 3 3 5 5 3 3 3 4 4 6 8 10 12 13 12 10 9 9 7 6 7 6 5 5 5 6 6 6 7 9 8 6 5 5 3 5 5 3 0 2 4 5 4 3 3 4 5 5 3 6 5 4 5 4 3 4 4 5 6 6 7 8 9
17 17 16 15 16 17 17 16 15 12 7 3 1 1 3 5 5 4 4 4 3 4 6 9 10 10 9 8 8 7 7 7 6 6 7 7 7 7 8 9 10 9 8 7 6 4 3 3 2 2 3 5 4 2 1 1 2 5 6 5 4 3 3 4 3 3 3 3 4 5 5 4 4 4
16 16 16 16 15 14 14 14 14 12 8 4 2 1 2 3 3 2 2 2 3 3 3 5 6 6 7 7 7 6 6 6 7 7 8 10 9 9 9 10 10 10 9 7 6 5 4 4 4 4 5 4 2 1 2 2 2 3 5 4 3 3 3 3 2 2 3 4 5 6 6 5 4 4
18 16 15 14 14 14 13 12 12 12 11 10 8 7 6 5 4 2 1 2 3 4 3 2 2 3 4 5 7 8 8 8 8 8 9 10 10 10 9 10 10 10 9 8 7 7 6 6 6 7 7 4 3 3 3 2 1 3 4 4 5 5 4 3 2 3 4 5 6 6 7 7 7 8
21 19 17 16 17 17 18 18 17 16 15 14 14 14 14 13 11 9 8 6 4 2 1 2 3 4 5 6 8 9 8 8 9 9 10 11 10 10 9 9 10 11 11 10 10 9 8 8 8 8 7 6 5 6 5 4 4 4 5 5 5 5 6 7 8 8 9 9 7 6 7 8 7 7
Wind_Direction
227 225 225 225 228 231 232 233 235 237 240 240 240 237 229 222 225 241 241 232 239 244 241 243 251 252 251 253 255 257 259 261 264 265 265 266 268 269 267 264 263 263 262 261 261 259 257 259 260 261 261 260 260 262 262 260 259 259 259 259 259 259 260 257 253 251 250 250 251 251 252 254 256 262
228 227 227 227 229 231 230 231 233 236 240 242 241 240 236 227 219 225 248 242 232 238 240 243 249 253 254 257 259 259 259 260 262 263 266 268 269 270 267 263 262 263 262 261 261 259 258 259 259 260 262 260 259 259 260 260 259 257 257 257 258 258 259 256 252 249 248 248 249 249 249 250 253 260
229 228 229 232 233 232 229 230 232 235 240 244 242 239 238 233 224 225 238 259 245 240 242 249 253 253 254 257 258 259 259 260 259 259 262 266 269 269 266 263 262 262 261 261 261 260 261 260 257 257 260 260 259 258 258 259 259 257 255 255 256 256 256 254 249 248 247 247 247 246 246 247 251 257
229 228 230 236 238 233 228 228 231 234 238 242 242 239 238 238 233 229 230 249 260 255 253 255 258 253 250 252 255 261 262 259 256 257 260 262 265 266 265 266 264 262 261 260 262 264 264 261 257 257 258 259 258 259 258 257 257 256 253 252 253 253 252 249 246 246 245 245 246 245 245 247 250 254
227 228 229 235 240 236 229 228 230 233 236 238 239 239 238 238 235 227 223 231 257 264 262 258 255 251 248 250 255 260 262 259 259 261 263 262 263 265 267 268 267 265 264 263 264 266 266 263 261 260 259 257 256 256 257 255 253 254 252 251 250 249 247 245 243 243 243 244 245 245 245 246 246 250
227 227 228 232 238 237 232 230 231 231 233 234 235 236 235 234 231 224 224 228 237 257 261 258 255 253 250 252 257 259 259 261 264 266 267 266 267 269 270 268 268 268 267 267 268 268 268 267 267 264 259 256 253 252 254 254 251 250 250 248 247 245 244 241 239 240 241 242 243 244 242 240 241 247
230 226 227 230 235 236 233 231 230 230 231 231 232 233 231 230 229 224 223 225 229 248 259 259 260 260 256 255 258 260 262 264 267 268 269 268 268 270 270 268 268 268 268 268 269 270 270 270 270 267 260 255 250 249 252 253 250 248 248 246 243 240 239 237 237 238 240 241 243 243 238 233 237 246
233 228 228 231 233 232 230 231 230 228 229 229 230 230 229 227 229 227 221 221 227 240 256 260 261 262 260 260 261 262 265 267 266 267 269 269 269 269 268 267 268 268 268 268 269 272 273 271 269 266 262 256 250 249 250 251 251 251 248 243 238 236 235 234 234 236 238 240 240 238 233 231 237 245
239 233 229 229 228 225 225 228 229 227 227 227 227 227 227 225 225 225 221 219 224 231 244 254 257 258 259 261 264 265 265 265 265 268 270 270 270 270 267 264 264 268 271 272 274 276 275 272 267 264 261 256 250 248 249 250 251 250 244 238 235 234 233 232 233 235 238 238 235 232 230 231 237 241
244 237 230 227 225 222 222 225 226 225 225 225 223 223 224 222 220 221 223 223 224 229 237 245 252 256 256 259 264 266 264 263 266 271 273 271 270 270 269 264 260 264 270 273 274 274 275 276 271 264 259 255 250 247 248 249 248 244 237 234 233 232 231 232 233 235 236 235 233 229 227 229 235 237
243 238 232 228 224 221 220 221 221 220 220 220 220 220 220 221 221 222 227 228 224 226 233 239 246 252 256 259 263 267 267 264 265 268 269 270 270 267 265 262 260 260 264 267 268 270 274 278 275 264 256 252 248 245 245 247 245 240 235 231 230 230 230 231 232 234 235 235 233 229 225 227 233 232
242 237 232 227 224 221 218 217 215 214 214 214 215 218 218 218 219 222 225 226 223 223 228 235 241 248 255 259 263 267 266 257 257 261 260 264 269 267 263 261 261 260 260 262 264 265 268 270 271 264 253 246 244 242 244 246 245 240 234 230 229 229 231 233 234 236 236 236 234 229 224 225 230 230
241 236 230 226 223 221 219 217 216 215 214 213 212 214 215 214 215 218 220 220 220 221 224 231 237 242 250 255 259 260 252 245 252 260 259 260 267 267 263 264 264 260 258 259 259 259 258 256 261 266 256 245 244 244 245 247 245 240 238 236 233 233 235 236 238 238 238 237 232 226 223 223 227 231
240 235 230 225 222 221 219 217 217 217 215 215 215 215 214 213 211 211 213 215 217 219 220 226 231 232 240 247 250 249 247 247 254 257 253 255 262 263 262 266 265 257 250 248 250 252 250 244 244 255 259 254 255 254 251 251 250 248 248 244 238 236 237 237 239 238 235 231 226 222 222 223 225 227
237 233 229 224 219 217 215 213 212 214 214 214 215 216 218 217 215 213 211 209 212 215 217 223 226 224 232 242 245 245 247 250 252 252 250 250 252 249 246 255 261 255 245 237 238 246 247 240 238 243 248 252 255 255 251 248 246 244 245 240 232 230 231 232 234 233 228 224 221 219 222 225 227 227
232 228 223 217 212 208 206 204 205 207 209 211 212 214 217 219 220 221 219 215 212 212 212 219 225 224 229 237 239 240 243 246 246 247 249 248 245 241 236 236 245 253 242 227 227 236 239 234 233 236 241 249 248 242 242 239 230 223 221 222 223 225 228 230 231 231 227 224 221 221 223 227 230 230
223 217 208 199 197 198 198 197 197 199 201 204 209 211 213 218 220 223 225 224 221 217 215 218 225 228 228 232 239 243 243 242 242 244 246 245 242 237 237 239 241 240 223 214 217 228 232 225 223 231 238 241 235 228 232 235 229 219 214 215 219 223 226 230 233 233 231 228 226 226 227 230 233 233
211 203 193 184 183 187 191 194 198 202 203 205 209 211 213 217 219 219 222 223 224 227 227 225 227 231 231 234 246 252 247 242 243 242 241 241 240 237 238 244 246 235 216 214 216 226 231 220 217 226 232 230 228 225 225 232 236 235 228 222 220 221 223 227 230 233 233 231 229 230 229 230 233 234
196 189 184 182 180 184 191 197 201 207 212 214 215 215 215 217 218 218 220 219 220 226 229 226 226 232 237 242 254 259 253 246 243 240 241 246 245 238 233 236 240 230 222 223 218 224 234 221 216 224 228 224 227 228 225 236 246 247 244 237 231 228 227 227 228 229 231 231 229 228 227 227 230 232
175 178 177 177 179 185 195 202 205 209 214 214 212 212 215 217 218 218 220 220 219 221 222 224 227 234 238 238 241 249 249 242 236 234 240 241 226 217 215 218 227 224 220 222 220 224 244 226 217 224 228 220 219 222 222 234 247 250 250 244 239 239 238 236 232 227 227 229 227 225 224 224 228 231
164 169 172 174 178 185 193 198 200 202 204 200 197 199 202 204 207 212 214 215 215 217 219 223 229 234 233 226 223 230 235 233 227 221 220 216 203 195 196 214 226 221 215 219 220 221 234 222 213 217 220 211 209 215 221 230 242 249 249 240 236 239 242 242 234 224 223 224 221 219 220 223 227 230
145 150 158 163 163 163 170 179 183 186 189 187 184 183 182 182 187 197 202 204 206 210 216 221 224 225 225 224 223 224 224 222 217 210 210 210 204 203 208 211 213 221 223 222 217 213 217 215 208 201 193 195 205 213 219 230 240 242 238 231 225 226 234 238 228 219 218 218 214 216 219 221 225 229
97 110 121 128 128 124 128 142 155 164 173 178 176 174 171 169 173 186 197 202 203 204 207 212 215 217 220 222 221 222 224 224 223 223 225 222 214 216 221 211 187 199 233 224 212 205 204 206 202 189 168 173 210 220 220 224 234 238 236 231 226 223 230 236 223 212 211 210 211 217 219 220 224 229
71 80 86 92 98 102 103 110 121 132 151 166 170 169 164 156 155 168 184 194 199 202 204 206 208 209 211 214 219 226 232 231 230 236 240 239 234 235 240 233 214 209 229 217 208 205 202 200 199 194 188 177 190 208 216 220 223 231 235 234 233 231 235 241 226 208 203 203 208 214 219 222 228 231
66 68 69 72 79 87 88 88 91 93 104 129 138 138 138 137 140 152 161 168 182 192 196 198 199 202 209 219 230 242 248 247 249 251 249 247 243 238 242 245 236 229 229 203 205 206 203 201 201 198 197 189 160 178 201 215 217 220 226 232 237 237 241 248 238 215 205 204 208 213 219 226 231 233
66 67 65 64 67 71 72 72 73 73 75 89 98 98 102 110 121 137 146 145 148 163 174 177 179 188 196 200 207 220 229 237 249 254 251 249 248 243 244 248 247 247 248 220 211 209 205 207 211 204 201 199 182 172 184 204 215 217 218 223 232 234 236 243 242 229 216 212 214 217 222 228 234 237
71 69 66 63 62 63 63 63 62 62 63 70 77 80 85 92 107 136 140 128 120 132 149 151 143 142 145 143 142 148 158 168 190 212 232 243 245 245 246 245 242 243 240 217 214 215 210 211 216 213 209 207 198 185 191 207 216 215 213 219 227 229 228 233 238 236 228 221 220 221 224 229 233 238
71 64 60 58 59 60 59 56 56 57 57 59 60 62 64 61 55 49 53 79 95 108 127 133 127 120 123 129 128 126 117 89 135 195 224 249 237 231 242 248 245 239 224 205 222 237 236 225 221 217 217 218 210 200 202 213 217 216 211 214 225 230 229 230 234 235 233 229 225 224 225 229 233 238
66 60 56 55 58 58 55 51 48 49 52 55 55 55 56 60 63 55 33 61 123 124 115 115 115 113 116 118 106 97 89 68 64 94 259 249 203 195 215 230 222 199 175 173 211 246 252 235 228 226 229 234 227 220 220 220 215 213 208 205 217 231 231 229 232 234 233 231 230 229 230 231 234 240
57 56 51 50 51 50 49 48 45 40 40 42 40 44 53 61 70 62 22 15 84 105 101 102 106 108 108 104 92 81 84 88 87 89 107 134 134 140 178 186 164 154 160 164 177 233 239 219 229 232 234 240 239 237 243 241 226 219 216 210 210 224 230 229 231 233 234 233 233 235 238 237 237 241
34 30 29 29 25 24 29 32 32 31 30 25 19 18 26 34 57 81 45 355 21 56 63 77 97 100 96 96 96 89 90 102 106 100 103 112 113 122 150 160 136 127 135 134 118 107 122 189 235 244 250 256 253 251 252 246 236 232 229 220 216 226 238 237 233 232 234 236 235 236 240 240 238 239
16 9 358 349 344 349 358 4 10 13 12 9 4 359 358 357 359 29 62 340 15 41 37 48 87 91 84 84 85 80 79 93 107 110 107 98 96 114 138 130 100 96 103 101 95 102 122 208 252 256 264 266 263 262 260 250 241 241 240 232 227 230 237 240 240 236 233 232 235 238 241 241 239 238
357 354 346 336 330 331 336 341 347 352 349 340 330 327 335 346 350 342 297 308 13 44 55 101 124 115 97 85 80 70 55 59 94 117 126 115 100 95 107 103 89 83 87 84 77 80 89 231 260 259 257 258 265 272 270 259 250 250 249 241 233 230 233 238 242 239 232 229 233 238 244 250 253 252
334 336 337 333 329 326 324 322 319 318 313 305 299 298 300 304 306 295 279 272 271 277 111 124 131 128 113 107 116 99 78 66 91 105 118 123 119 112 105 98 88 84 89 89 78 67 63 62 18 277 258 250 264 275 272 268 269 270 267 255 245 242 242 241 239 234 231 233 235 237 242 252 261 266
305 306 310 313 315 314 311 308 307 306 301 296 294 294 290 283 276 270 265 259 252 243 206 159 147 141 134 144 167 142 116 118 78 74 99 109 104 106 104 89 81 90 96 88 76 64 55 50 48 43 34 301 290 307 301 293 285 274 269 263 256 253 251 247 241 237 234 235 235 234 237 245 256 265
293 289 288 291 298 301 300 300 302 300 294 289 286 284 282 280 275 263 252 245 240 238 228 206 184 169 160 162 166 148 127 132 122 62 70 75 78 102 112 87 87 111 107 82 69 60 49 42 45 52 54 50 39 45 60 70 79 75 28 341 284 267 264 256 248 242 236 234 233 233 235 243 255 266
303 301 296 295 297 298 299 303 309 308 300 291 283 277 274 275 275 269 253 240 235 234 234 231 221 206 198 192 180 166 161 188 247 317 343 20 45 80 112 98 108 134 117 80 67 54 41 38 50 63 68 72 63 32 3 69 106 93 35 0 327 297 284 266 249 240 237 236 238 241 245 253 264 276
319 319 316 314 313 310 307 308 313 321 334 327 295 277 271 272 278 276 257 240 236 236 235 233 230 226 226 224 213 196 182 184 229 275 271 278 305 313 146 120 153 166 133 86 79 56 38 38 64 72 72 81 85 39 351 2 33 38 7 337 308 297 292 287 282 268 249 243 244 249 256 265 277 289
331 331 329 329 329 326 320 316 313 319 352 13 4 323 270 246 242 249 235 228 231 235 234 230 229 229 226 218 208 195 176 163 162 193 240 259 255 243 255 251 199 187 183 132 110 80 62 84 84 59 52 50 45 9 323 327 334 338 12 53 341 330 335 326 320 319 302 277 266 265 270 279 289 296
332 335 335 336 337 337 333 326 317 307 315 352 19 31 36 193 200 191 190 207 222 230 231 228 224 219 209 198 195 194 191 189 193 206 232 242 227 222 236 226 196 186 186 185 175 131 118 141 139 47 35 26 14 353 314 302 303 309 344 112 125 97 58 42 25 5 358 350 325 305 301 301 303 307
329 331 334 340 347 348 346 339 327 309 295 302 15 31 41 66 120 154 162 179 206 218 221 219 214 209 206 205 209 212 207 198 195 196 195 187 177 177 183 186 187 188 193 205 210 177 137 148 176 259 346 345 351 359 345 312 313 338 11 77 132 126 57 31 25 8 359 356 339 323 321 320 316 317
343 340 339 343 348 349 349 349 343 330 311 291 305 20 64 83 95 111 122 134 164 199 215 216 213 213 216 218 219 222 218 209 203 197 189 186 186 187 189 194 198 199 198 205 207 187 161 175 216 257 293 309 324 353 39 41 18 16 23 48 96 88 30 16 2 331 316 317 319 316 315 312 301 302
11 3 359 358 356 351 344 345 350 354 359 9 22 60 93 84 78 85 95 108 135 168 205 222 223 225 228 228 233 243 243 236 233 226 216 213 212 206 199 199 199 196 196 202 204 199 208 231 250 275 292 296 285 199 160 117 65 24 11 15 16 12 16 33 33 357 322 316 320 319 315 309 293 286
28 27 26 26 27 27 25 25 29 37 45 51 53 56 59 57 55 60 74 98 126 144 160 192 239 246 241 235 238 244 247 250 252 245 232 225 223 219 213 207 201 199 201 206 207 210 221 235 249 264 273 264 217 197 199 197 315 329 335 340 335 332 338 347 337 321 314 315 321 323 320 316 312 308
34 39 46 50 52 54 53 53 54 56 60 64 63 61 61 62 61 61 62 61 62 81 176 208 222 232 233 233 233 236 241 247 251 250 246 242 238 234 226 213 206 206 207 209 215 222 228 234 239 244 246 236 215 206 213 230 258 281 295 302 302 308 318 321 317 315 313 309 309 318 322 321 320 319
Height
781 782 784 786 787 788 790 791 793 795 796 796 797 798 797 800 803 803 802 798 794 795 796 796 795 796 797 797 797 798 798 798 798 798 798 799 799 799 800 800 801 801 802 803 803 804 805 806 806 807 807 808 808 809 809 810 812 813 814 815 816 817 818 819 819 821 821 822 823 824 824 825 825 825
776 777 778 781 782 784 786 787 788 789 791 791 793 794 793 795 798 800 799 795 791 792 793 792 793 793 794 795 795 795 795 795 796 796 796 796 796 796 796 797 797 798 799 799 800 801 801 802 802 802 803 803 804 804 805 806 808 809 810 811 812 813 814 815 816 817 819 819 820 821 822 822 823 823
771 771 772 775 776 778 779 780 782 784 786 787 789 790 790 791 793 795 797 795 790 790 790 790 791 792 793 793 794 793 793 793 793 793 793 793 793 793 793 794 794 795 795 796 796 797 797 797 798 798 798 799 800 800 801 802 803 804 806 807 808 809 810 812 813 814 816 816 817 818 819 820 821 821
766 766 767 769 770 772 774 774 776 778 780 783 785 787 787 787 789 791 794 795 790 788 789 789 790 791 791 792 792 792 791 791 791 791 790 790 790 790 790 790 791 791 791 792 792 793 793 793 793 794 794 795 796 797 797 798 799 800 802 803 804 805 806 808 809 811 813 814 814 815 816 818 818 818
762 762 762 764 765 767 769 769 771 773 775 779 781 783 783 783 785 788 791 793 790 787 787 788 788 789 789 789 789 790 789 789 789 788 788 787 787 787 787 786 787 787 788 788 788 789 789 789 789 790 790 791 792 793 793 794 795 796 797 799 800 801 803 804 806 808 809 811 811 812 813 815 815 816
759 758 759 760 761 763 764 765 766 768 771 775 777 778 779 779 781 783 785 787 786 783 783 785 785 786 786 786 786 787 787 787 787 786 785 784 783 783 783 782 783 783 784 784 784 784 785 785 785 786 786 787 788 789 790 790 791 792 793 795 796 798 799 801 803 805 806 808 808 809 811 812 813 814
755 756 756 757 758 759 760 760 762 765 767 770 772 772 774 775 777 779 781 782 782 781 781 782 783 783 783 783 784 784 785 785 785 784 782 781 780 780 779 779 780 780 780 781 781 781 782 782 782 783 783 783 784 785 786 787 788 789 790 791 793 794 795 797 799 802 803 805 806 807 809 810 811 811
751 751 752 753 754 756 757 757 759 761 763 765 767 768 770 771 773 776 778 780 780 781 780 779 779 780 780 781 781 782 782 782 782 781 780 779 777 777 777 776 777 778 778 778 778 778 778 778 779 780 780 780 781 782 783 784 785 786 787 788 789 790 792 794 796 799 800 802 804 805 806 807 808 808
745 746 746 747 749 752 753 753 755 757 758 759 762 763 765 767 769 771 774 777 777 778 778 776 775 776 777 778 778 779 779 779 779 778 777 776 775 774 774 774 774 774 775 775 775 775 775 775 776 777 777 778 778 780 781 782 782 783 784 784 786 787 789 791 794 796 797 799 801 802 803 804 805 805
738 739 739 741 743 745 746 747 750 752 754 755 757 758 760 762 765 768 771 773 774 775 774 772 771 772 773 774 775 775 776 776 775 775 774 774 773 772 771 771 771 771 772 772 772 772 772 772 773 774 775 775 776 777 778 779 779 780 780 781 783 785 787 789 790 792 793 794 796 798 800 802 802 803
730 730 732 734 736 738 739 741 744 746 749 750 752 753 755 757 760 763 767 769 770 770 769 768 768 768 770 771 771 771 773 773 772 772 771 770 770 769 768 768 769 769 769 770 770 770 770 771 771 771 772 773 774 775 776 776 777 777 778 779 780 783 784 786 787 788 789 791 793 795 797 799 800 800
722 722 723 726 729 731 733 734 737 739 742 744 746 748 750 752 754 758 762 764 766 767 766 766 766 766 767 767 767 768 769 769 768 768 769 768 766 766 766 766 766 767 767 768 768 768 769 769 770 770 771 771 771 772 773 774 774 775 776 777 779 780 782 783 784 784 786 788 791 794 796 796 797 797
714 714 716 718 721 724 726 728 730 733 735 738 741 743 745 747 750 753 756 759 761 763 763 763 763 764 764 763 763 765 765 765 765 765 766 765 763 763 763 763 764 764 765 765 765 766 767 768 769 769 770 769 769 770 771 771 773 773 774 775 777 778 780 780 781 781 783 786 789 792 794 794 795 795
705 707 708 710 713 717 720 722 724 727 730 732 735 738 740 742 745 748 751 754 756 758 759 759 760 761 760 758 759 761 761 762 762 762 762 762 761 762 761 760 760 761 762 762 763 763 765 766 768 768 768 768 768 768 769 769 771 772 773 774 775 776 777 778 778 779 781 784 787 789 791 792 793 794
699 701 703 705 708 711 714 717 720 722 725 728 731 734 736 737 739 742 745 749 751 753 754 754 756 757 755 754 756 758 758 759 759 759 759 759 759 760 760 759 758 758 759 760 760 761 762 764 766 766 767 767 767 767 767 768 769 770 771 772 773 775 775 775 776 778 780 782 784 786 788 790 791 792
695 696 699 700 703 706 710 713 716 719 722 725 728 731 732 734 735 737 739 742 745 747 749 750 752 752 751 751 753 754 755 755 755 755 756 756 757 758 758 757 756 756 757 758 759 759 760 762 764 764 765 766 766 766 766 766 768 769 770 772 772 773 774 774 775 776 778 780 782 784 785 787 789 790
692 693 695 697 700 703 707 710 713 716 719 723 725 728 729 731 732 733 735 738 740 742 744 746 747 747 748 748 749 751 751 752 752 752 753 753 754 756 756 754 754 755 756 756 757 758 759 761 762 763 764 764 765 765 765 765 767 768 770 771 772 772 773 773 774 775 776 778 780 781 783 785 787 789
690 691 693 694 697 701 705 708 711 713 717 720 722 724 725 727 728 730 732 734 737 740 741 741 742 744 744 745 746 748 749 750 750 750 750 751 752 754 753 752 753 755 755 755 756 757 758 760 761 761 762 763 764 764 765 765 766 767 768 770 771 771 772 772 772 773 774 776 778 779 781 783 785 787
690 690 691 693 696 700 703 706 709 712 715 717 719 721 722 723 725 727 729 730 733 737 739 739 740 741 742 743 745 746 747 748 748 748 749 750 751 752 752 752 752 753 754 755 755 756 757 758 759 760 761 762 763 764 765 765 766 766 767 768 769 770 770 771 771 772 773 775 776 778 780 782 783 785
691 691 692 694 696 700 702 705 707 710 713 715 717 718 719 721 723 724 726 727 730 733 736 738 739 739 740 742 743 744 745 746 747 747 748 749 750 750 751 752 752 752 753 753 754 755 756 757 758 759 760 761 762 763 764 765 765 766 766 767 767 768 769 769 770 771 772 773 775 776 778 780 781 782
693 693 694 695 698 700 702 705 707 709 712 713 714 715 716 718 720 721 723 726 729 732 735 736 737 737 738 740 741 743 744 744 745 746 748 748 748 749 750 751 751 751 751 752 753 754 756 757 758 759 759 760 762 763 763 764 764 765 765 766 767 767 768 768 769 770 771 772 773 775 776 778 779 780
694 695 696 697 699 701 703 705 707 709 711 711 712 712 714 715 717 720 723 725 728 731 732 733 733 734 736 738 740 742 743 743 743 744 745 746 747 748 750 750 751 751 750 751 752 754 755 758 759 759 760 760 761 762 762 763 763 764 765 765 766 767 767 768 768 769 770 771 772 773 775 776 777 778
695 696 697 698 700 702 703 704 706 708 710 711 711 712 714 715 717 721 723 725 726 728 728 729 731 733 735 737 739 740 741 742 742 743 744 745 746 747 748 749 750 751 750 749 751 752 754 756 757 758 759 760 761 761 761 762 763 763 764 764 765 765 766 766 767 768 769 770 771 773 774 775 776 777
699 699 700 700 702 704 704 706 707 709 711 712 713 714 715 716 718 720 721 723 724 725 727 728 730 732 735 737 738 739 740 740 741 742 743 744 745 746 747 747 748 748 747 747 749 750 752 754 755 756 757 758 759 759 760 761 762 762 763 763 764 764 764 764 765 766 767 769 770 771 773 774 775 776
704 703 704 706 707 707 708 709 710 711 712 713 714 715 715 716 717 718 720 722 724 725 727 728 730 732 734 736 737 738 738 739 739 740 741 742 743 744 745 745 745 746 746 747 748 749 751 753 754 755 755 756 757 757 759 760 760 761 762 762 763 763 763 763 764 764 766 767 768 770 771 772 774 775
710 709 710 711 711 711 711 712 712 713 714 714 715 716 716 717 718 719 721 723 724 725 726 728 730 731 733 734 735 736 737 737 738 738 739 740 741 742 743 743 744 745 746 747 748 749 750 752 753 753 754 755 756 757 758 758 759 760 761 761 762 762 762 762 763 763 764 766 767 768 770 771 772 773
716 716 716 715 714 714 714 714 715 715 716 717 717 718 718 719 720 721 722 723 723 725 727 728 730 731 732 733 734 736 736 736 737 737 737 738 739 740 741 742 742 744 745 746 747 748 748 750 752 753 753 754 755 756 757 757 757 758 759 760 760 761 761 762 761 762 763 764 766 767 768 769 770 771
719 719 719 718 717 717 717 718 718 719 719 720 720 721 721 721 722 723 725 725 725 726 727 728 729 730 731 732 733 734 735 735 736 736 737 737 737 738 739 740 740 742 744 746 748 749 747 748 750 752 753 754 754 754 755 755 755 756 757 758 759 760 760 760 760 761 762 763 764 765 766 767 768 769
721 721 721 721 720 720 721 721 721 722 722 722 723 724 724 724 725 726 727 727 727 727 727 728 729 730 731 732 733 733 734 735 735 736 736 736 736 737 738 739 740 741 743 745 747 748 747 747 748 750 752 754 754 753 753 753 754 754 755 756 757 757 758 758 759 759 760 761 762 763 764 765 766 767
723 723 723 723 723 723 723 723 724 724 725 725 725 726 727 727 728 728 728 729 728 727 727 729 729 730 731 732 732 733 734 735 735 736 736 736 736 736 737 739 740 741 743 745 746 746 746 746 747 749 750 752 753 752 751 752 752 753 754 754 755 755 756 756 756 757 758 758 759 760 761 763 764 765
723 724 724 724 724 724 724 725 726 726 727 727 727 727 728 729 730 730 730 731 729 728 728 729 730 730 731 732 732 733 734 735 736 737 737 737 737 737 738 740 740 741 743 744 744 745 745 745 746 747 748 749 750 750 750 750 750 751 752 753 753 753 753 754 755 756 756 757 757 758 759 760 761 762
724 724 724 724 724 725 725 726 726 727 728 728 728 728 728 729 729 729 730 730 729 729 729 729 730 731 731 732 733 733 734 735 736 737 738 738 738 738 739 740 740 740 742 743 744 744 744 744 744 745 746 747 748 748 748 748 748 749 749 749 750 751 751 752 753 754 755 755 755 756 756 757 758 759
725 725 725 725 725 725 725 726 727 727 728 728 729 729 729 729 729 729 729 729 729 729 729 730 730 731 732 733 733 734 735 736 736 737 738 739 739 739 739 739 739 740 742 743 743 743 743 743 743 744 744 745 746 746 746 746 747 747 748 748 749 749 750 751 751 752 753 754 754 754 755 756 756 758
726 726 725 725 725 725 726 726 727 727 728 728 729 729 729 729 729 729 729 729 729 730 730 730 731 732 733 734 734 735 735 736 737 737 738 738 739 739 739 739 740 741 742 743 743 743 743 743 743 743 743 744 744 744 745 745 745 746 747 748 748 748 749 749 750 750 751 752 753 754 754 755 755 756
727 726 726 726 726 726 727 727 727 727 727 727 728 728 728 729 729 729 730 730 730 730 730 731 731 732 733 734 735 735 736 736 737 737 737 738 738 739 739 739 740 741 742 743 743 743 743 743 743 743 743 743 743 743 744 744 745 746 746 747 747 747 748 748 748 749 749 750 751 752 753 753 753 753
727 727 727 727 727 727 727 727 727 727 726 726 727 727 727 728 728 728 729 729 730 731 731 731 732 732 733 734 735 735 736 736 736 736 737 737 738 738 739 740 740 741 742 742 742 743 743 744 743 743 743 743 744 744 745 744 745 745 746 746 746 746 746 747 747 747 747 748 749 750 751 751 751 751
728 728 728 728 728 728 727 727 726 726 725 725 726 726 726 727 726 727 728 728 729 730 731 731 732 732 733 733 734 735 735 735 736 736 736 737 737 738 739 740 740 741 742 742 742 743 743 744 744 744 744 744 745 746 745 745 745 745 745 745 745 745 745 746 746 746 746 747 748 749 749 750 750 750
728 728 728 728 727 727 727 726 726 725 724 724 724 725 725 725 725 725 726 727 728 729 730 731 732 732 733 733 733 734 734 734 735 735 735 736 737 737 738 739 740 741 742 742 742 743 743 744 744 744 745 745 746 746 746 745 745 746 745 745 745 745 745 745 745 745 746 747 747 748 748 749 749 749
728 728 728 727 727 726 726 725 725 725 724 724 724 723 724 724 725 725 725 725 726 728 729 730 731 731 732 733 733 734 734 734 735 735 735 736 736 737 738 739 740 741 742 742 743 743 743 744 745 745 745 745 746 746 746 746 746 746 745 745 745 744 745 745 745 745 745 746 747 747 748 748 748 748
727 727 727 726 726 725 725 724 725 725 724 724 723 723 723 724 724 724 724 725 726 727 728 729 730 731 731 732 732 733 733 733 734 734 734 735 735 736 737 738 739 740 741 741 742 743 743 743 744 745 745 745 745 745 745 745 745 745 745 745 744 744 745 744 744 745 745 745 746 746 746 746 746 746
727 726 726 726 725 725 724 723 724 724 724 724 723 723 723 724 724 724 724 725 725 726 727 728 729 729 730 731 731 731 732 732 733 733 733 734 735 735 736 737 738 739 740 740 741 742 742 742 743 743 744 744 745 745 745 745 745 744 744 744 744 744 744 744 744 744 745 745 745 745 745 745 745 745
727 726 725 725 725 724 724 723 723 723 723 723 723 723 723 724 724 725 725 725 725 726 726 727 728 728 729 729 730 730 731 731 732 732 733 733 734 735 735 736 737 738 738 739 740 740 741 741 741 742 743 743 743 744 744 744 744 744 743 744 744 744 744 744 744 744 744 744 745 745 745 745 745 744
727 726 726 726 725 725 724 724 723 723 723 723 724 724 724 724 724 725 725 725 725 725 726 726 727 727 728 728 729 729 729 730 731 731 732 732 733 734 734 735 736 736 737 738 738 739 739 740 740 741 741 741 742 742 743 743 743 743 743 743 743 743 743 743 743 743 744 744 744 744 744 744 744 743
728 727 727 726 726 725 725 724 724 724 724 724 725 725 725 725 725 725 725 725 725 725 725 726 726 726 727 727 728 728 728 729 729 730 731 731 732 732 733 734 734 735 736 736 737 737 738 739 739 740 740 740 741 741 742 742 742 742 742 742 742 742 742 742 742 742 743 743 743 743 743 743 742 742
729 728 727 727 726 726 726 726 726 725 724 724 725 725 725 725 725 725 725 726 726 726 726 726 726 726 726 727 727 727 728 728 729 729 730 730 731 731 732 732 733 733 734 735 735 736 737 737 738 739 739 739 740 740 740 741 741 741 741 741 742 742 742 742 742 742 741 741 742 742 741 741 741 740